User: anonymous   Login
Location: Carrer del Canonge
(41.4901°N, 2.2931°E)
Time: 14:05:26
(UTC+00:00)
Language:

NOSS 2-2 (E) - Orbit

View from above orbital plane
View from above orbital plane
View from above satellite
View from above satellite

Ground track
Ground track

The orbit data is extracted from the following two-line orbital elements,

1 21809U 91076E   21205.95906468 0.00000646  00000-0  99427-4 0    04
2 21809  63.3056 175.9454 0874633  41.6625 318.3375 13.41758852    09
Epoch (UTC): 24 July 2021 23:01:03
Eccentricity: 0.0874633
inclination: 63.3056°
perigee height: 448 km
apogee height: 1757 km
right ascension of ascending node: 175.9454°
argument of perigee: 41.6625°
revolutions per day: 13.41758852
mean anomaly at epoch: 318.3375°
orbit number at epoch: 0

The dashed part of the orbit path shows where the satellite is in the earth's shadow,  

DLR